Regional Weather Roundup
Issued by NWS

Home | Current Version | Previous Version | Text Only | Print | Product List | Glossary Off
Versions: 1 2 3 4 5 6 7 8 9 10 11 12 13 14 15 16 17 18 19 20 21 22 23 24 25 26 27

000
ASUS45 KBOU 190907
RWRCO

WEATHER ROUNDUP FOR COLORADO
NATIONAL WEATHER SERVICE DENVER/BOULDER CO
300 AM MDT TUE SEP 19 2017

NOTE: "FAIR" INDICATES FEW OR NO CLOUDS BELOW 12000 FEET WITH NO
SIGNIFICANT WEATHER AND/OR OBSTRUCTIONS TO VISIBILITY.

COZ001>005-013-030-031-191000-
...NORTHWEST COLORADO...

CITY           SKY/WX    TMP DP  RH WIND       PRES   REMARKS
CRAIG          FAIR      44  33  65 CALM      29.85F
HAYDEN         FAIR      51  26  37 E10       29.88F
MEEKER         FAIR      61  22  22 SW3       29.86F
RABBIT EARS PA FAIR      45  21  39 SW14G25   30.11F
STEAMBOAT SPGS FAIR      52  27  38 E6        29.89F
WALDEN         FAIR      52  18  25 S15       29.96F
$$

COZ006>008-011-191000-
...WEST CENTRAL VALLEYS...

CITY           SKY/WX    TMP DP  RH WIND       PRES   REMARKS
GRAND JUNCTION FAIR      58  30  34 SE9       29.83F
MONTROSE       FAIR      65  22  19 S13       29.96S
EAGLE          FAIR      49  28  44 E13       29.93F
RIFLE          FAIR      66  23  19 SW5       29.85F
DELTA          FAIR      57  27  32 MISG      29.92F
NUCLA          FAIR      61  19  20 S7        30.01F
$$

COZ017>023-064>068-191000-
...SOUTHWEST COLORADO...

CITY           SKY/WX    TMP DP  RH WIND       PRES   REMARKS
DURANGO        FAIR      39  31  72 NE5       30.10F
CORTEZ         FAIR      42  32  67 E5        30.04S
PAGOSA SPRINGS FAIR      37  26  63 CALM      30.16F
TELLURIDE      FAIR      56  14  19 S17G33    30.16F
WOLF CREEK PAS FAIR      36  19  51 SW22G36   30.35F
$$

COZ009-010-012-014-032>034-037-058>063-191000-
...CENTRAL COLORADO...

CITY           SKY/WX    TMP DP  RH WIND       PRES   REMARKS
ASPEN          FAIR      50  24  36 S10       30.00F
BUENA VISTA    FAIR      37  25  64 CALM      30.05F
COPPER MTN     FAIR      45   9  23 SW10G24   30.24F
BERTHOUD PASS  FAIR      36  30  80 W38G61    30.17F
COTTONWOOD PAS FAIR      52  12  20 SW5       30.15F
GUNNISON       FAIR      36  29  75 E5        30.10F
KREMMLING      FAIR      54  23  30 SE7       29.96F
LEADVILLE      FAIR      50  11  20 S9G25     30.11F
MONARCH PASS   FAIR      39  16  38 SW36      30.37F
SALIDA         FAIR      55  21  26 CALM      30.10F
SUNLIGHT       FAIR      41  19  42 SW21G36   30.16F
WILKERSON PASS FAIR      41  18  38 SW21G29   30.19F
$$

COZ069>075-191000-
...SAN LUIS VALLEY/SANGRE DE CRISTO MOUNTAINS...

CITY           SKY/WX    TMP DP  RH WIND       PRES   REMARKS
ALAMOSA        FAIR      45  27  49 SE10      30.09F
DEL NORTE      FAIR      43  23  45 CALM      30.11F
LA VETA PASS   FAIR      50  19  29 S22G47    30.26F
SAGUACHE       FAIR      37  30  75 NW7       30.10F
$$

COZ035-036-038>040-191000-
...NORTHERN COLORADO FRONT RANGE...

CITY           SKY/WX    TMP DP  RH WIND       PRES   REMARKS
DENVER INTL AP FAIR      60  32  34 SW8       29.78F
DMNS CITY PARK   N/A     58  35  41 E9        29.77F
AURORA         CLEAR     62  29  29 S14       29.80F
FRONT RANGE AP FAIR      66  30  26 S15       29.79F
ERIE MUNI ARPT FAIR      46  33  61 CALM      29.80F
BOULDER MUN AP FAIR      57  30  35 CALM      29.75F
CENTENNIAL     FAIR      63  26  24 S12       29.82F
BROOMFIELD     FAIR      55  34  44 SW5       29.79F
FORT COLLINS   FAIR      49  41  74 N7        29.75F
LONGMONT       FAIR      51  37  58 SW5       29.76F
$$

COZ041-046-047-076>085-087-088-191000-
...PIKES PEAK/PALMER DIVIDE AND SOUTHERN FOOTHILLS...

CITY           SKY/WX    TMP DP  RH WIND       PRES   REMARKS
COLO. SPRINGS  FAIR      63  29  27 SW18      29.89F
A. F. ACADEMY  FAIR      53  34  48 SW8       29.91F
SCHRIEVER AFB  FAIR      59  26  27 MISG      29.90F
CHEYENNE MTN   NOT AVBL
ELLICOTT       NOT AVBL
FALCON         FAIR      53  30  42 S13       29.94F
FORT CARSON    FAIR      63  24  22 SW5       29.88F
LIMON            N/A    N/A N/A N/A MISG      29.84F
MONUMENT HILL  FAIR      59  23  25 SW13      29.93F
CANON CITY     CLEAR     57  32  38 W10       29.86F
WALSENBURG     FAIR      64  23  20 W6        29.93F
TRINIDAD       FAIR      59  31  34 SW6       29.93F
$$

COZ042>045-048>051-090-091-191000-
...NORTHEAST COLORADO...

CITY           SKY/WX    TMP DP  RH WIND       PRES   REMARKS
GREELEY ARPT   FAIR      49  41  74 NE5       29.74F
AKRON          FAIR      58  46  64 S13       29.75F
BURLINGTON     FAIR      58  55  90 S14       29.78F
WRAY           FAIR      59  52  77 E3        29.74F
YUMA           FAIR      48  32  53 S7        29.74F
STERLING       FAIR      61  48  63 W9        29.71F
HOLYOKE        FAIR      59  50  72 SE9       29.74F
FORT MORGAN    FAIR      55  39  53 CALM      29.75F
$$

COZ086-089-092>099-191000-
...SOUTHEAST COLORADO...

CITY           SKY/WX    TMP DP  RH WIND       PRES   REMARKS
PUEBLO         FAIR      51  33  50 E3        29.82F
LA JUNTA       FAIR      64  29  26 SW15      29.80F
LAMAR          FAIR      52  44  74 CALM      29.77F
SPRINGFIELD    NOT AVBL
$$




USA.gov is the U.S. government's official web portal to all federal, state and local government web resources and services.